SCP
0 0 0 0 0 0 0 0 0 0 0 0 -0 -0 -0 -0 -0 -0 0 -0 -0 0 0 0 -0 -0 0 0 0 0 0 0 0 0 0 0 0 -0 -0 -0 -0 -0 0 0 -0 -0 -0 -0 -0
0 0 0 0 0 0 0 0 0 0 0 0 -0 -0 -0 0 0 0 0 -0 -0 -0 0 0 -0 -0 0 0 0 0 0 0 0 0 0 0 -0 -0 -0 -0 -0 -0 -0 0 -0 -0 -0 -0 -0
0 0 0 0 0 0 -0 0 0 0 0 0 0 0 0 0 0 0 -0 -0 -0 -0 0 0 -0 -0 0 0 0 0 0 0 0 0 0 0 0 0 -0 -0 -0 -0 -0 0 -0 -0 -0 -0 -0
0 0 0 0 0 0 0 -0 -0 0 0 0 0 0 0 0 0 -0 -0 -0 -0 -0 -0 0 0 0 0 0 0 0 0 0 0 0 0 0 0 0 -0 -0 -0 -0 -0 -0 0 0 -0 0 0
0 0 0 0 0 0 -0 -0 -0 0 0 0 0 0 0 0 0 0 0 -0 -0 -0 -0 -0 -0 0 0 0 0 0 0 0 0 0 0 0 0 -0 -0 -0 -0 -0 -0 -0 0 0 -0 -0 0
0 0 0 0 0 0 0 0 0 0 0 0 0 0 0 -0 0 0 0 0 -0 -0 0 0 -0 0 0 0 0 0 0 0 0 0 0 0 0 -0 -0 -0 -0 -0 -0 -0 0 0 0 0 0
0 0 0 0 0 0 0 0 0 0 0 0 0 0 0 0 0 0 0 0 0 -0 0 0 0 0 0 0 0 0 0 0 0 0 0 0 0 0 -0 -0 -0 -0 0 0 -0 -0 0 0 0
0 0 0 0 0 0 0 0 0 0 0 0 0 0 0 0 0 0 0 0 -0 -0 0 0 0 0 0 0 0 0 0 0 0 0 0 0 0 0 -0 -0 -0 0 0 0 0 0 0 0 0
0 0 0 0 0 -0 0 0 0 0 0 0 0 0 0 0 0 0 0 0 0 0 -0 0 0 0 0 0 0 0 0 0 -0 0 -0 0 0 0 -0 -0 -0 0 0 0 0 0 0 0 0
0 -0 0 0 0 -0 0 0 0 0 0 0 0 0 0 0 0 0 0 0 0 0 0 0 0 0 0 0 0 0 0 0 0 0 0 0 0 0 -0 -0 0 0 0 0 0 0 0 0 0
0 -0 0 0 0 0 0 0 0 0 0 -0 -0 0 0 0 0 0 0 0 0 0 0 0 0 0 0 0 0 0 0 0 0 0 0 0 0 0 0 0 0 0 0 0 0 0 0 0 0
0 0 0 0 0 0 0 0 0 0 0 0 0 0 -0 -0 -0 -0 -0 -0 0 0 0 0 0 0 0 0 0 0 0 0 0 0 0 0 0 0 0 0 0 0 0 0 0 0 0 0 0
0 0 0 0 0 0 0 0 0 0 0 0 0 0 -0 -0 -0 -0 -0 -0 -0 -0 -0 0 0 0 0 0 0 0 0 0 0 0 0 0 0 0 0 0 0 0 0 0 0 0 0 0 0
0 0 0 0 0 0 0 0 0 0 0 0 0 0 0 0 -0 -0 0 -0 -0 -0 -0 -0 0 0 0 0 0 0 0 0 0 0 0 0 0 0 0 0 0 0 0 0 0 0 0 0 0
0 0 0 0 0 0 0 0 0 0 0 0 0 0 0 0 0 0 0 0 0 0 -0 0 0 0 0 0 0 0 0 0 0 0 0 0 0 0 0 0 0 0 0 0 0 0 0 0 0
0 0 0 0 0 0 0 0 0 0 0 0 0 0 0 0 0 0 0 0 0 0 0 0 0 0 0 0 0 0 0 0 0 0 0 0 0 0 0 0 0 0 0 0 0 0 0 0 0
0 0 0 0 0 0 0 0 0 0 0 0 0 0 0 0 0 0 0 0 0 0 0 0 0 0 0 0 0 0 0 0 0 0 0 0 0 0 0 0 0 0 0 0 0 0 0 0 0
0 0 0 0 0 0 0 0 0 0 0 0 0 0 0 0 0 0 0 0 0 0 0 0 0 0 0 0 0 0 0 0 0 0 0 0 0 0 0 0 0 0 0 0 0 0 0 0 0
0 0 0 0 0 0 0 0 0 0 0 0 0 0 0 0 0 0 0 0 0 0 0 0 0 0 0 0 0 0 0 0 0 0 0 0 0 0 0 0 0 0 0 0 0 0 0 0 0
0 0 0 0 0 0 0 0 0 0 0 0 0 0 0 0 0 0 0 0 0 0 0 0 0 0 0 0 0 0 0 0 0 0 0 0 0 0 0 0 0 0 0 0 0 0 0 0 0
0 0 0 0 0 0 0 0 0 0 0 0 0 0 0 0 0 0 0 0 0 0 0 0 0 0 0 0 0 0 0 0 0 0 0 0 0 0 0 0 0 0 0 0 0 0 0 0 0
0 0 0 0 0 0 0 0 0 0 0 0 0 0 0 0 0 0 0 0 0 0 0 0 0 0 0 0 0 0 0 0 0 0 0 0 0 0 0 0 0 0 0 0 0 0 0 0 0
0 0 0 0 0 0 0 0 0 0 0 0 0 0 0 0 0 0 0 0 0 0 0 0 0 0 0 0 0 0 0 0 0 0 0 0 0 0 0 0 0 0 0 0 0 0 0 0 0
0 0 0 0 0 0 0 0 0 0 0 0 0 0 0 0 0 0 0 0 0 0 0 0 0 0 0 0 0 0 0 0 0 0 0 0 0 0 0 0 0 0 0 0 0 0 0 0 0
0 0 0 0 0 0 0 0 0 0 0 0 0 0 0 0 0 0 0 0 0 0 0 0 0 0 0 0 0 0 0 0 0 0 0 0 0 0 0 0 0 0 0 0 0 0 0 0 0
0 0 0 0 0 0 0 0 0 0 0 0 0 0 0 0 0 0 0 0 0 0 0 0 0 0 0 0 0 0 0 0 0 0 0 0 0 0 0 0 0 0 0 0 0 0 0 0 0
0 0 0 0 0 0 0 0 0 0 0 0 0 0 0 0 0 0 0 0 0 0 0 0 0 0 0 0 0 0 0 0 0 0 0 0 0 0 0 0 0 0 0 0 0 -0 -0 0 -0
0 0 0 0 0 0 0 0 0 0 0 0 0 0 0 0 0 0 0 0 0 0 0 0 0 0 0 0 0 0 0 0 0 0 0 0 0 0 0 0 0 0 0 0 0 -0 0 0 0
0 0 0 0 0 0 0 0 0 0 0 0 0 0 0 0 0 0 0 0 0 0 0 0 0 0 0 0 0 0 0 0 0 0 0 0 0 0 0 0 0 0 0 0 0 0 0 0 0
0 0 0 0 0 0 0 0 0 0 0 0 0 0 0 0 0 0 0 0 0 0 0 0 0 0 0 0 0 0 0 0 0 0 0 0 0 0 0 0 0 0 0 0 0 0 0 0 0
Wind_Speed_500mb
17 14 10 5 7 8 6 8 9 12 10 23 30 29 23 26 7 12 30 20 19 24 30 31 26 27 27 24 24 31 33 23 15 11 12 14 15 16 16 17 17 16 16 16 15 15 15 16 15
8 10 8 2 6 2 7 9 10 11 24 25 24 20 20 7 14 35 26 24 23 26 30 30 27 29 29 29 27 27 26 18 11 10 12 12 12 12 12 13 13 13 13 13 12 11 11 12 12
8 1 1 6 3 6 5 6 7 14 23 16 8 23 12 8 18 39 24 33 25 27 29 30 29 30 30 29 25 23 18 16 12 9 8 9 8 9 9 10 10 10 10 10 10 10 10 10 11
17 1 5 5 5 5 12 15 11 8 14 19 21 16 19 12 11 15 42 31 26 27 30 29 29 29 28 29 27 24 14 12 10 7 5 5 6 7 8 9 10 10 10 10 11 11 11 12 12
14 4 2 4 7 4 10 43 31 10 12 13 21 9 13 11 9 35 37 30 23 29 29 27 27 26 26 24 24 20 14 10 6 3 1 2 5 6 8 9 10 12 12 12 12 14 16 15 14
7 4 3 6 6 5 6 5 15 22 24 16 24 17 11 15 28 49 34 23 15 21 22 26 25 25 22 20 19 16 12 7 2 1 2 4 6 8 10 12 12 14 15 16 17 18 18 20 19
3 5 4 11 15 3 7 3 8 23 26 15 18 10 22 24 36 43 28 20 20 19 17 26 26 25 22 18 16 14 12 8 6 7 8 9 10 11 12 14 16 16 19 20 21 21 21 23 24
8 7 6 4 0 9 4 7 32 27 12 20 20 12 14 37 41 44 36 23 19 14 14 26 22 21 20 18 18 17 15 13 13 15 15 16 15 15 17 19 19 20 22 23 25 25 25 25 26
7 6 5 6 2 9 12 6 18 21 31 24 15 23 26 31 39 48 47 34 21 15 14 18 20 20 17 16 15 15 15 17 21 17 14 15 15 17 19 20 19 20 23 25 26 26 27 28 29
5 5 6 8 5 7 13 13 13 13 28 22 39 31 25 20 29 48 42 40 27 19 14 12 13 15 15 14 14 12 14 18 20 20 19 18 19 19 22 24 24 27 28 29 29 29 32 34 34
6 8 3 10 9 18 3 16 9 12 7 23 39 37 22 21 20 32 41 39 35 24 16 18 15 14 14 14 13 13 14 16 18 17 19 21 21 23 25 29 30 33 32 31 31 33 35 36 38
2 10 11 3 8 3 5 11 16 23 13 27 30 25 22 21 23 18 17 27 40 31 22 19 21 20 21 20 23 21 21 20 20 21 23 26 28 30 31 34 34 36 35 37 37 37 38 40 41
5 3 5 15 10 14 10 24 12 28 29 34 32 25 28 25 24 20 15 10 9 17 25 24 23 24 23 25 25 25 25 25 23 25 26 29 31 31 32 32 34 36 38 41 41 43 43 44 45
1 7 10 5 6 5 7 7 10 20 29 32 29 26 23 20 20 23 9 9 9 4 6 15 22 24 31 28 27 26 26 26 28 30 31 33 35 36 36 37 38 40 40 41 43 46 48 50 50
6 5 6 3 4 3 4 8 6 20 27 40 42 42 38 41 34 28 19 18 16 10 10 11 13 14 18 31 32 27 28 27 30 32 33 35 36 39 42 44 44 44 44 46 48 49 52 55 55
5 6 6 8 11 2 7 3 8 6 16 37 54 51 41 32 23 18 20 17 17 15 14 17 14 19 19 15 15 27 36 26 27 28 32 34 37 38 42 43 42 43 47 49 50 51 53 56 59
9 10 7 2 14 5 6 9 26 24 44 56 56 48 40 30 25 18 10 7 14 17 18 16 15 15 20 24 22 18 12 15 21 27 30 29 33 35 38 42 46 46 46 47 50 55 56 60 59
13 14 30 10 11 11 11 17 21 46 66 54 57 57 49 39 33 24 21 16 10 7 14 19 19 19 16 8 13 16 14 18 25 29 32 33 35 39 40 41 44 45 45 47 50 54 57 59 63
13 14 17 15 5 13 25 20 16 32 53 51 54 54 49 41 27 25 26 25 24 21 15 9 13 17 17 14 2 8 10 14 13 12 15 18 20 25 25 28 32 33 35 39 43 47 50 53 53
7 13 11 9 27 10 7 17 15 32 25 40 44 44 42 32 32 33 32 31 33 32 33 28 19 7 8 5 5 3 5 9 13 12 13 19 17 20 24 25 26 31 33 32 33 36 44 47 47
13 14 12 16 17 17 8 4 8 12 35 43 44 41 38 36 37 38 39 41 41 42 42 39 36 28 19 7 7 7 4 4 6 12 18 23 27 29 27 27 33 35 36 36 39 41 39 45 45
28 12 11 29 12 9 12 5 10 12 14 25 35 37 34 34 37 42 44 47 49 49 46 45 44 42 38 32 28 25 25 28 29 26 23 20 22 23 21 23 25 29 30 31 33 35 37 35 42
8 31 11 21 10 10 11 7 8 25 16 15 25 32 33 33 38 42 44 45 45 44 44 44 42 42 41 37 35 33 32 30 25 22 20 21 23 24 26 28 30 31 34 36 39 42 44 44 47
15 22 17 15 6 7 12 9 9 11 24 17 26 30 29 31 35 40 42 42 44 43 42 41 39 41 38 35 33 32 30 28 25 26 26 29 30 31 32 34 36 38 39 42 44 46 47 49 50
33 26 6 6 6 5 13 6 3 6 16 34 34 35 31 30 32 35 37 39 41 40 39 39 36 37 35 32 31 31 30 28 29 31 34 36 39 42 45 47 48 50 50 50 52 53 54 56 57
30 11 10 12 13 8 13 14 10 7 35 45 42 39 33 29 30 33 33 34 35 35 34 32 32 31 31 30 30 31 31 35 36 37 39 40 42 46 49 51 53 55 56 57 58 59 60 60 60
12 16 8 9 4 8 8 6 5 11 16 37 37 35 31 26 26 29 28 29 29 28 29 28 28 29 29 30 30 31 33 34 36 38 40 42 42 44 46 49 52 55 57 59 61 63 64 64 65
10 16 8 4 11 6 6 9 9 23 21 19 30 34 31 27 24 25 25 25 25 24 25 24 27 29 32 33 33 35 36 37 38 40 42 43 45 47 48 50 53 56 59 60 61 62 64 66 65
5 8 4 8 6 8 9 7 12 32 29 25 35 34 30 26 23 23 22 21 21 20 22 24 25 27 29 30 31 32 34 34 35 37 39 41 43 46 49 52 54 56 61 62 63 63 64 66 67
3 7 9 8 5 4 6 4 3 24 33 46 41 33 28 22 21 18 15 13 13 19 24 25 26 25 23 25 27 29 31 32 33 35 38 41 43 46 48 49 51 52 58 61 63 65 62 65 65
Wind_Direction_500mb
113 97 99 53 47 75 266 287 135 47 53 66 66 89 103 52 17 135 147 188 197 164 157 151 143 142 147 154 151 142 138 145 139 114 97 92 91 93 93 89 85 83 79 75 73 67 64 62 61
130 88 32 347 93 104 283 27 80 110 105 84 73 104 53 75 83 134 145 171 193 172 161 152 146 144 141 138 138 140 152 160 138 113 99 92 88 86 80 79 76 72 71 67 61 59 59 56 53
43 316 309 131 189 206 137 73 222 104 121 104 78 73 69 33 114 142 198 176 177 166 160 152 149 146 144 141 134 127 133 131 127 115 102 92 84 72 61 56 52 50 49 43 38 29 25 23 22
357 107 253 97 295 341 135 86 227 83 69 85 114 69 85 51 128 150 170 185 167 159 159 152 150 148 146 148 143 153 162 137 129 118 101 72 51 43 30 26 23 18 19 18 7 358 355 354 350
323 265 28 276 230 176 126 174 150 146 115 75 105 104 81 67 115 150 168 182 181 152 150 152 154 152 152 155 163 172 164 155 145 131 102 19 3 356 354 350 353 349 345 345 346 339 333 331 327
324 349 26 345 171 135 40 114 126 118 105 72 103 94 85 112 125 144 164 179 179 154 156 162 159 161 162 166 165 169 172 174 185 279 311 329 336 338 333 332 329 325 321 324 326 326 324 320 319
147 91 248 86 289 81 150 122 72 88 93 50 62 70 126 137 133 145 161 179 174 178 177 175 169 167 169 172 180 188 197 216 250 260 271 286 297 309 316 319 321 317 312 312 314 314 313 312 312
301 95 283 189 178 320 212 84 87 87 75 87 117 132 158 156 152 152 154 166 183 199 192 180 180 181 184 184 188 197 214 234 249 253 261 284 298 304 310 312 313 310 308 307 309 309 308 307 307
304 44 40 70 209 240 156 90 76 99 101 77 92 128 145 161 162 166 165 159 191 216 193 181 192 193 200 206 214 225 240 252 273 290 307 311 305 301 301 299 306 307 306 308 307 307 306 304 303
154 101 238 163 121 303 128 126 122 120 114 95 106 123 142 145 166 174 165 162 194 210 215 208 199 199 206 213 224 238 255 270 285 299 304 307 305 307 308 306 311 312 306 305 304 300 299 299 302
198 206 350 338 277 354 118 87 67 119 27 167 153 146 144 133 136 159 167 172 192 199 204 224 232 238 237 241 249 255 260 270 276 288 295 298 302 304 305 305 306 304 306 304 306 303 302 300 299
316 289 284 238 99 69 53 87 68 88 98 138 129 131 135 132 125 130 163 186 193 202 201 219 240 244 243 239 252 266 276 282 288 295 300 304 306 307 304 301 303 304 308 311 312 308 306 304 304
207 292 73 124 83 68 100 81 96 112 108 124 113 110 106 103 100 103 89 70 133 190 215 213 237 247 254 258 259 263 274 282 292 296 297 295 295 298 300 299 299 303 308 312 313 311 309 305 304
17 322 255 121 102 79 86 84 102 139 121 118 119 116 113 97 90 89 85 41 1 345 282 239 244 251 249 257 263 274 278 285 291 296 300 301 302 301 301 303 301 300 301 303 303 303 302 302 302
57 47 43 89 139 27 81 49 87 127 126 129 115 110 112 108 126 112 154 168 187 233 303 315 276 271 268 255 253 260 267 278 283 293 296 298 298 305 305 302 298 296 295 296 297 299 299 299 300
124 75 115 286 152 57 91 47 7 144 158 135 112 110 106 93 94 104 128 143 153 183 218 223 274 307 296 282 272 273 267 266 283 290 289 296 297 299 296 305 307 305 298 295 296 298 298 299 300
178 165 261 2 46 109 87 125 11 53 104 102 102 96 91 79 68 65 84 162 198 207 207 213 221 234 291 307 305 294 298 282 285 284 289 295 298 296 297 299 302 302 302 299 296 294 296 300 299
180 155 185 201 359 20 101 69 23 65 84 80 88 87 81 74 57 53 61 72 96 159 209 219 224 234 242 275 306 313 302 291 280 282 288 289 291 293 292 294 295 298 300 300 300 298 299 298 300
150 151 143 185 236 11 85 69 41 58 78 77 79 82 78 73 67 66 73 75 76 80 88 127 207 226 240 242 16 334 314 311 302 320 333 316 321 317 314 318 321 325 323 315 311 310 308 306 309
173 149 155 110 162 102 139 76 57 55 65 81 84 81 82 79 71 73 75 74 71 73 69 68 71 101 199 200 105 46 330 347 1 8 343 320 322 332 332 324 318 315 314 315 326 327 323 323 326
204 167 169 134 121 103 79 34 28 45 69 77 82 84 82 81 77 76 77 75 75 73 71 68 67 71 75 85 165 144 45 349 324 322 327 330 323 314 307 310 310 312 313 309 310 308 312 315 310
209 122 123 139 126 172 141 201 163 126 76 69 79 82 84 87 86 83 81 79 77 74 76 74 75 76 74 69 70 67 67 62 52 46 40 34 27 25 19 8 356 348 343 337 334 329 325 327 325
177 135 113 91 99 125 174 150 177 142 141 119 94 90 87 85 87 85 83 82 81 82 77 75 73 71 69 68 69 68 66 60 52 46 35 27 18 6 358 353 348 344 342 338 334 331 332 330 322
103 103 50 63 73 206 191 137 173 181 151 130 111 103 95 92 91 88 86 86 83 79 76 73 70 69 66 59 56 53 50 44 33 27 19 14 6 1 356 353 349 345 341 339 338 336 332 327 323
117 135 128 133 191 189 184 126 84 93 133 135 131 118 110 104 96 91 86 81 80 78 72 69 64 61 58 53 47 43 36 27 18 11 5 357 354 350 349 347 344 342 340 337 335 335 332 331 329
160 170 141 162 174 154 121 168 181 156 123 130 130 125 120 110 101 91 82 78 74 70 66 62 56 53 44 37 31 25 19 15 9 3 358 353 350 347 344 341 338 335 333 332 332 331 330 328 325
158 208 114 78 16 101 141 116 48 154 132 132 133 130 124 115 103 94 89 81 74 67 60 50 42 34 25 19 12 8 5 0 357 353 349 345 343 339 337 336 334 333 331 330 331 330 329 330 330
166 159 143 110 167 142 177 176 189 176 168 157 142 137 131 125 113 103 92 83 73 60 49 33 25 16 9 1 355 355 352 349 346 342 339 339 339 337 336 336 335 334 331 331 331 331 331 331 330
120 149 107 121 142 141 143 228 191 175 167 159 152 144 139 135 126 114 99 82 63 44 27 7 1 358 349 343 345 345 342 341 341 339 339 339 340 337 337 336 335 333 329 328 328 328 329 329 329
266 143 131 132 225 48 92 275 77 155 150 148 150 145 142 140 132 119 104 82 42 14 1 348 353 351 346 345 344 348 345 346 345 346 344 342 341 337 336 336 334 334 330 328 330 329 331 331 330
Wind_Speed_850mb
17 14 10 5 7 8 6 8 9 12 10 23 30 29 23 26 7 12 30 20 19 24 30 31 26 27 27 24 24 31 33 23 15 11 12 14 15 16 16 17 17 16 16 16 15 15 15 16 15
8 10 8 2 6 2 7 9 10 11 24 25 24 20 20 7 14 35 26 24 23 26 30 30 27 29 29 29 27 27 26 18 11 10 12 12 12 12 12 13 13 13 13 13 12 11 11 12 12
8 1 1 6 3 6 5 6 7 14 23 16 8 23 12 8 18 39 24 33 25 27 29 30 29 30 30 29 25 23 18 16 12 9 8 9 8 9 9 10 10 10 10 10 10 10 10 10 11
17 1 5 5 5 5 12 15 11 8 14 19 21 16 19 12 11 15 42 31 26 27 30 29 29 29 28 29 27 24 14 12 10 7 5 5 6 7 8 9 10 10 10 10 11 11 11 12 12
14 4 2 4 7 4 10 43 31 10 12 13 21 9 13 11 9 35 37 30 23 29 29 27 27 26 26 24 24 20 14 10 6 3 1 2 5 6 8 9 10 12 12 12 12 14 16 15 14
7 4 3 6 6 5 6 5 15 22 24 16 24 17 11 15 28 49 34 23 15 21 22 26 25 25 22 20 19 16 12 7 2 1 2 4 6 8 10 12 12 14 15 16 17 18 18 20 19
3 5 4 11 15 3 7 3 8 23 26 15 18 10 22 24 36 43 28 20 20 19 17 26 26 25 22 18 16 14 12 8 6 7 8 9 10 11 12 14 16 16 19 20 21 21 21 23 24
8 7 6 4 0 9 4 7 32 27 12 20 20 12 14 37 41 44 36 23 19 14 14 26 22 21 20 18 18 17 15 13 13 15 15 16 15 15 17 19 19 20 22 23 25 25 25 25 26
7 6 5 6 2 9 12 6 18 21 31 24 15 23 26 31 39 48 47 34 21 15 14 18 20 20 17 16 15 15 15 17 21 17 14 15 15 17 19 20 19 20 23 25 26 26 27 28 29
5 5 6 8 5 7 13 13 13 13 28 22 39 31 25 20 29 48 42 40 27 19 14 12 13 15 15 14 14 12 14 18 20 20 19 18 19 19 22 24 24 27 28 29 29 29 32 34 34
6 8 3 10 9 18 3 16 9 12 7 23 39 37 22 21 20 32 41 39 35 24 16 18 15 14 14 14 13 13 14 16 18 17 19 21 21 23 25 29 30 33 32 31 31 33 35 36 38
2 10 11 3 8 3 5 11 16 23 13 27 30 25 22 21 23 18 17 27 40 31 22 19 21 20 21 20 23 21 21 20 20 21 23 26 28 30 31 34 34 36 35 37 37 37 38 40 41
5 3 5 15 10 14 10 24 12 28 29 34 32 25 28 25 24 20 15 10 9 17 25 24 23 24 23 25 25 25 25 25 23 25 26 29 31 31 32 32 34 36 38 41 41 43 43 44 45
1 7 10 5 6 5 7 7 10 20 29 32 29 26 23 20 20 23 9 9 9 4 6 15 22 24 31 28 27 26 26 26 28 30 31 33 35 36 36 37 38 40 40 41 43 46 48 50 50
6 5 6 3 4 3 4 8 6 20 27 40 42 42 38 41 34 28 19 18 16 10 10 11 13 14 18 31 32 27 28 27 30 32 33 35 36 39 42 44 44 44 44 46 48 49 52 55 55
5 6 6 8 11 2 7 3 8 6 16 37 54 51 41 32 23 18 20 17 17 15 14 17 14 19 19 15 15 27 36 26 27 28 32 34 37 38 42 43 42 43 47 49 50 51 53 56 59
9 10 7 2 14 5 6 9 26 24 44 56 56 48 40 30 25 18 10 7 14 17 18 16 15 15 20 24 22 18 12 15 21 27 30 29 33 35 38 42 46 46 46 47 50 55 56 60 59
13 14 30 10 11 11 11 17 21 46 66 54 57 57 49 39 33 24 21 16 10 7 14 19 19 19 16 8 13 16 14 18 25 29 32 33 35 39 40 41 44 45 45 47 50 54 57 59 63
13 14 17 15 5 13 25 20 16 32 53 51 54 54 49 41 27 25 26 25 24 21 15 9 13 17 17 14 2 8 10 14 13 12 15 18 20 25 25 28 32 33 35 39 43 47 50 53 53
7 13 11 9 27 10 7 17 15 32 25 40 44 44 42 32 32 33 32 31 33 32 33 28 19 7 8 5 5 3 5 9 13 12 13 19 17 20 24 25 26 31 33 32 33 36 44 47 47
13 14 12 16 17 17 8 4 8 12 35 43 44 41 38 36 37 38 39 41 41 42 42 39 36 28 19 7 7 7 4 4 6 12 18 23 27 29 27 27 33 35 36 36 39 41 39 45 45
28 12 11 29 12 9 12 5 10 12 14 25 35 37 34 34 37 42 44 47 49 49 46 45 44 42 38 32 28 25 25 28 29 26 23 20 22 23 21 23 25 29 30 31 33 35 37 35 42
8 31 11 21 10 10 11 7 8 25 16 15 25 32 33 33 38 42 44 45 45 44 44 44 42 42 41 37 35 33 32 30 25 22 20 21 23 24 26 28 30 31 34 36 39 42 44 44 47
15 22 17 15 6 7 12 9 9 11 24 17 26 30 29 31 35 40 42 42 44 43 42 41 39 41 38 35 33 32 30 28 25 26 26 29 30 31 32 34 36 38 39 42 44 46 47 49 50
33 26 6 6 6 5 13 6 3 6 16 34 34 35 31 30 32 35 37 39 41 40 39 39 36 37 35 32 31 31 30 28 29 31 34 36 39 42 45 47 48 50 50 50 52 53 54 56 57
30 11 10 12 13 8 13 14 10 7 35 45 42 39 33 29 30 33 33 34 35 35 34 32 32 31 31 30 30 31 31 35 36 37 39 40 42 46 49 51 53 55 56 57 58 59 60 60 60
12 16 8 9 4 8 8 6 5 11 16 37 37 35 31 26 26 29 28 29 29 28 29 28 28 29 29 30 30 31 33 34 36 38 40 42 42 44 46 49 52 55 57 59 61 63 64 64 65
10 16 8 4 11 6 6 9 9 23 21 19 30 34 31 27 24 25 25 25 25 24 25 24 27 29 32 33 33 35 36 37 38 40 42 43 45 47 48 50 53 56 59 60 61 62 64 66 65
5 8 4 8 6 8 9 7 12 32 29 25 35 34 30 26 23 23 22 21 21 20 22 24 25 27 29 30 31 32 34 34 35 37 39 41 43 46 49 52 54 56 61 62 63 63 64 66 67
3 7 9 8 5 4 6 4 3 24 33 46 41 33 28 22 21 18 15 13 13 19 24 25 26 25 23 25 27 29 31 32 33 35 38 41 43 46 48 49 51 52 58 61 63 65 62 65 65
Wind_Direction_850mb
113 97 99 53 47 75 266 287 135 47 53 66 66 89 103 52 17 135 147 188 197 164 157 151 143 142 147 154 151 142 138 145 139 114 97 92 91 93 93 89 85 83 79 75 73 67 64 62 61
130 88 32 347 93 104 283 27 80 110 105 84 73 104 53 75 83 134 145 171 193 172 161 152 146 144 141 138 138 140 152 160 138 113 99 92 88 86 80 79 76 72 71 67 61 59 59 56 53
43 316 309 131 189 206 137 73 222 104 121 104 78 73 69 33 114 142 198 176 177 166 160 152 149 146 144 141 134 127 133 131 127 115 102 92 84 72 61 56 52 50 49 43 38 29 25 23 22
357 107 253 97 295 341 135 86 227 83 69 85 114 69 85 51 128 150 170 185 167 159 159 152 150 148 146 148 143 153 162 137 129 118 101 72 51 43 30 26 23 18 19 18 7 358 355 354 350
323 265 28 276 230 176 126 174 150 146 115 75 105 104 81 67 115 150 168 182 181 152 150 152 154 152 152 155 163 172 164 155 145 131 102 19 3 356 354 350 353 349 345 345 346 339 333 331 327
324 349 26 345 171 135 40 114 126 118 105 72 103 94 85 112 125 144 164 179 179 154 156 162 159 161 162 166 165 169 172 174 185 279 311 329 336 338 333 332 329 325 321 324 326 326 324 320 319
147 91 248 86 289 81 150 122 72 88 93 50 62 70 126 137 133 145 161 179 174 178 177 175 169 167 169 172 180 188 197 216 250 260 271 286 297 309 316 319 321 317 312 312 314 314 313 312 312
301 95 283 189 178 320 212 84 87 87 75 87 117 132 158 156 152 152 154 166 183 199 192 180 180 181 184 184 188 197 214 234 249 253 261 284 298 304 310 312 313 310 308 307 309 309 308 307 307
304 44 40 70 209 240 156 90 76 99 101 77 92 128 145 161 162 166 165 159 191 216 193 181 192 193 200 206 214 225 240 252 273 290 307 311 305 301 301 299 306 307 306 308 307 307 306 304 303
154 101 238 163 121 303 128 126 122 120 114 95 106 123 142 145 166 174 165 162 194 210 215 208 199 199 206 213 224 238 255 270 285 299 304 307 305 307 308 306 311 312 306 305 304 300 299 299 302
198 206 350 338 277 354 118 87 67 119 27 167 153 146 144 133 136 159 167 172 192 199 204 224 232 238 237 241 249 255 260 270 276 288 295 298 302 304 305 305 306 304 306 304 306 303 302 300 299
316 289 284 238 99 69 53 87 68 88 98 138 129 131 135 132 125 130 163 186 193 202 201 219 240 244 243 239 252 266 276 282 288 295 300 304 306 307 304 301 303 304 308 311 312 308 306 304 304
207 292 73 124 83 68 100 81 96 112 108 124 113 110 106 103 100 103 89 70 133 190 215 213 237 247 254 258 259 263 274 282 292 296 297 295 295 298 300 299 299 303 308 312 313 311 309 305 304
17 322 255 121 102 79 86 84 102 139 121 118 119 116 113 97 90 89 85 41 1 345 282 239 244 251 249 257 263 274 278 285 291 296 300 301 302 301 301 303 301 300 301 303 303 303 302 302 302
57 47 43 89 139 27 81 49 87 127 126 129 115 110 112 108 126 112 154 168 187 233 303 315 276 271 268 255 253 260 267 278 283 293 296 298 298 305 305 302 298 296 295 296 297 299 299 299 300
124 75 115 286 152 57 91 47 7 144 158 135 112 110 106 93 94 104 128 143 153 183 218 223 274 307 296 282 272 273 267 266 283 290 289 296 297 299 296 305 307 305 298 295 296 298 298 299 300
178 165 261 2 46 109 87 125 11 53 104 102 102 96 91 79 68 65 84 162 198 207 207 213 221 234 291 307 305 294 298 282 285 284 289 295 298 296 297 299 302 302 302 299 296 294 296 300 299
180 155 185 201 359 20 101 69 23 65 84 80 88 87 81 74 57 53 61 72 96 159 209 219 224 234 242 275 306 313 302 291 280 282 288 289 291 293 292 294 295 298 300 300 300 298 299 298 300
150 151 143 185 236 11 85 69 41 58 78 77 79 82 78 73 67 66 73 75 76 80 88 127 207 226 240 242 16 334 314 311 302 320 333 316 321 317 314 318 321 325 323 315 311 310 308 306 309
173 149 155 110 162 102 139 76 57 55 65 81 84 81 82 79 71 73 75 74 71 73 69 68 71 101 199 200 105 46 330 347 1 8 343 320 322 332 332 324 318 315 314 315 326 327 323 323 326
204 167 169 134 121 103 79 34 28 45 69 77 82 84 82 81 77 76 77 75 75 73 71 68 67 71 75 85 165 144 45 349 324 322 327 330 323 314 307 310 310 312 313 309 310 308 312 315 310
209 122 123 139 126 172 141 201 163 126 76 69 79 82 84 87 86 83 81 79 77 74 76 74 75 76 74 69 70 67 67 62 52 46 40 34 27 25 19 8 356 348 343 337 334 329 325 327 325
177 135 113 91 99 125 174 150 177 142 141 119 94 90 87 85 87 85 83 82 81 82 77 75 73 71 69 68 69 68 66 60 52 46 35 27 18 6 358 353 348 344 342 338 334 331 332 330 322
103 103 50 63 73 206 191 137 173 181 151 130 111 103 95 92 91 88 86 86 83 79 76 73 70 69 66 59 56 53 50 44 33 27 19 14 6 1 356 353 349 345 341 339 338 336 332 327 323
117 135 128 133 191 189 184 126 84 93 133 135 131 118 110 104 96 91 86 81 80 78 72 69 64 61 58 53 47 43 36 27 18 11 5 357 354 350 349 347 344 342 340 337 335 335 332 331 329
160 170 141 162 174 154 121 168 181 156 123 130 130 125 120 110 101 91 82 78 74 70 66 62 56 53 44 37 31 25 19 15 9 3 358 353 350 347 344 341 338 335 333 332 332 331 330 328 325
158 208 114 78 16 101 141 116 48 154 132 132 133 130 124 115 103 94 89 81 74 67 60 50 42 34 25 19 12 8 5 0 357 353 349 345 343 339 337 336 334 333 331 330 331 330 329 330 330
166 159 143 110 167 142 177 176 189 176 168 157 142 137 131 125 113 103 92 83 73 60 49 33 25 16 9 1 355 355 352 349 346 342 339 339 339 337 336 336 335 334 331 331 331 331 331 331 330
120 149 107 121 142 141 143 228 191 175 167 159 152 144 139 135 126 114 99 82 63 44 27 7 1 358 349 343 345 345 342 341 341 339 339 339 340 337 337 336 335 333 329 328 328 328 329 329 329
266 143 131 132 225 48 92 275 77 155 150 148 150 145 142 140 132 119 104 82 42 14 1 348 353 351 346 345 344 348 345 346 345 346 344 342 341 337 336 336 334 334 330 328 330 329 331 331 330